Location: ??????
(56.0120°N, 39.1740°E)
Time: 14:42:12
(UTC+00:00)

COSMOS 2455 - Pass Details

Date: 14 April 2026
Orbit: 901 x 907 km, 67.1° (Epoch: 16 May)

Event Time Altitude Azimuth Distance (km) Brightness Sun altitude
Rises 19:17:20 0° 313° (NW) 3,545 7.4 -19.3°
Reaches altitude 10° 19:19:56 10° 318° (NW) 2,601 6.4 -19.5°
Maximum altitude 19:25:50 52° 35° (NE) 1,116 3.4 -20.0°
Enters shadow 19:29:24 24° 102° (ESE) 1,810 4.0 -20.2°
